This is the latest recevied weather packets stored in our database for station/object K0CVS. If no packets are shown the sender has not sent any weather packets the latest 10 day(s).
| Time | Temp. | Humidity | Pressure | Rain* | Wind** | Luminosity | Snow |
|---|---|---|---|---|---|---|---|
| 1778109601 | 15° C | 34% | 1017.4 hPa | 0 mm | - | 21 W/m² | - |
| 1778109299 | 15° C | 34% | 1017.2 hPa | 0 mm | - | 22 W/m² | - |
| 1778108996 | 15° C | 33% | 1017.5 hPa | 0 mm | - | 23 W/m² | - |
| 1778108692 | 15° C | 32% | 1017.4 hPa | 0 mm | - | 23 W/m² | - |
| 1778108389 | 15° C | 33% | 1017.3 hPa | 0 mm | - | 24 W/m² | - |
| 1778108086 | 15° C | 34% | 1017.4 hPa | 0 mm | - | 25 W/m² | - |
| 1778107783 | 15° C | 33% | 1017.3 hPa | 0 mm | - | 26 W/m² | - |
| 1778107480 | 15° C | 33% | 1017.6 hPa | 0 mm | - | 26 W/m² | - |
| 1778107177 | 15° C | 33% | 1017.4 hPa | 0 mm | - | 27 W/m² | - |
| 1778106872 | 15.56° C | 32% | 1017.4 hPa | 0 mm | - | 28 W/m² | - |
| 1778106570 | 15.56° C | 32% | 1017.6 hPa | 0 mm | - | 28 W/m² | - |
| 1778106266 | 15.56° C | 32% | 1017.3 hPa | 0 mm | - | 29 W/m² | - |
| 1778105963 | 15.56° C | 34% | 1017.5 hPa | 0 mm | - | 29 W/m² | - |
| 1778105660 | 15.56° C | 34% | 1017.3 hPa | 0 mm | - | 30 W/m² | - |
| 1778105358 | 15.56° C | 32% | 1017.4 hPa | 0 mm | - | 30 W/m² | - |
| 1778105053 | 15.56° C | 33% | 1017.6 hPa | 0 mm | - | 31 W/m² | - |
| 1778104750 | 15.56° C | 33% | 1017.5 hPa | 0 mm | - | 32 W/m² | - |
| 1778104446 | 15.56° C | 32% | 1017.7 hPa | 0 mm | - | 311 W/m² | - |
| 1778104142 | 15.56° C | 32% | 1017.8 hPa | 0 mm | - | 383 W/m² | - |
| 1778103839 | 16.11° C | 33% | 1017.7 hPa | 0 mm | - | 59 W/m² | - |
| 1778103537 | 16.11° C | 32% | 1017.7 hPa | 0 mm | - | 278 W/m² | - |
| 1778103234 | 16.11° C | 33% | 1017.7 hPa | 0 mm | - | 440 W/m² | - |
| 1778102931 | 15.56° C | 34% | 1017.8 hPa | 0 mm | - | 169 W/m² | - |
| 1778102627 | 15.56° C | 33% | 1017.8 hPa | 0 mm | - | 470 W/m² | - |
| 1778102322 | 15.56° C | 32% | 1017.8 hPa | 0 mm | - | 483 W/m² | - |
* Rain latest hour (hover to see other rain measurements)
** Current wind speed in m/s (hover to see current wind gust speed)